Weather History for Monroe, LA

Change the Weather History Date:

Saturday, June 7, 2014

  Actual Average Record
Temperature  
Mean Temperature 83 °F 79 °F  
Max Temperature 93 °F 90 °F 100 °F (1963)
Min Temperature 73 °F 68 °F 55 °F (2000)
Degree Days  
Heating Degree Days 0 0  
Month to date heating degree days 0 0  
Since 1 June heating degree days 0 0  
Since 1 July heating degree days 2839 2230  
Cooling Degree Days 18 14  
Month to date cooling degree days 113 95  
Year to date cooling degree days 443 530  
Since 1 June cooling degree days 113 95  
Growing Degree Days 32 (Base 50)    
Moisture  
Dew Point 72 °F    
Average Humidity 75    
Maximum Humidity 100    
Minimum Humidity 49    
Precipitation  
Precipitation 0.00 in 0.15 in 1.95 in (1974)
Month to date precipitation 0.08 1.04  
Year to date precipitation 24.99 25.09  
Snow  
Snow 0.00 in - - ()
Month to date snowfall 0.0  
Since 1 June snowfall 0.0  
Since 1 July snowfall 0.5  
Snow Depth 0.00 in    
Sea Level Pressure  
Sea Level Pressure 29.94 in    
Wind  
Wind Speed 5 mph (SW)    
Max Wind Speed 14 mph    
Max Gust Speed 17 mph    
Visibility 10 miles    
Events      
T = Trace of Precipitation, MM = Missing Value Source: NWS Daily Summary

Daily Weather History Graph

Daily Weather History Graph

Search for Another Location

Airport:

Trip Planner

Search our weather history database for the weather conditions in past years. The results will help you decide how hot, cold, wet, or windy it might be!

Date:

Astronomy

Jun. 07, 2014 Rise Set
Actual Time 6:00 AM CDT 8:13 PM CDT
Civil Twilight 5:32 AM CDT 8:42 PM CDT
Nautical Twilight 4:57 AM CDT 9:16 PM CDT
Astronomical Twilight 4:20 AM CDT 9:54 PM CDT
Moon 2:48 PM CDT (6/7) 2:03 AM CDT (6/7)
Length of Visible Light 15h 09m
Length of Day
14h 13m
Waxing Gibbous, 68% of the Moon is Illuminated
Jun 7
Waxing Gibbous
Jun 12
Full
Jun 19
Last Quarter
Jun 27
New
Jul 5
First Quarter

Hourly Weather History & Observations

Time (CDT) Temp. Heat Index Dew Point Humidity Pressure Visibility Wind Dir Wind Speed Gust Speed Precip Events Conditions
12:53 AM 75.0 °F - 73.0 °F 94% 29.92 in 10.0 mi Calm Calm - N/A   Clear
1:53 AM 73.9 °F - 73.0 °F 97% 29.93 in 8.0 mi Calm Calm - N/A   Partly Cloudy
2:53 AM 73.0 °F - 72.0 °F 96% 29.94 in 8.0 mi Calm Calm - N/A   Clear
3:53 AM 73.9 °F - 73.0 °F 97% 29.94 in 10.0 mi Calm Calm - N/A   Clear
4:53 AM 73.9 °F - 73.0 °F 97% 29.96 in 8.0 mi Calm Calm - N/A   Mostly Cloudy
5:53 AM 75.0 °F - 73.0 °F 94% 29.96 in 9.0 mi Calm Calm - N/A   Partly Cloudy
7:53 AM 78.8 °F - 73.4 °F 83% 29.98 in 10.0 mi SSW 3.5 mph - N/A   Clear
8:53 AM 84.2 °F 90.9 °F 73.4 °F 70% 29.99 in 10.0 mi WSW 5.8 mph - N/A   Clear
9:53 AM 86.0 °F 93.0 °F 73.0 °F 65% 29.97 in 10.0 mi South 5.8 mph - N/A   Clear
10:53 AM 89.1 °F 97.0 °F 73.0 °F 59% 29.96 in 10.0 mi SW 8.1 mph - N/A   Clear
11:53 AM 91.0 °F 98.2 °F 72.0 °F 53% 29.96 in 10.0 mi SW 9.2 mph - N/A   Partly Cloudy
12:53 PM 91.9 °F 99.5 °F 72.0 °F 52% 29.95 in 10.0 mi SW 9.2 mph - N/A   Partly Cloudy
1:53 PM 91.0 °F 97.6 °F 71.1 °F 52% 29.94 in 10.0 mi SW 9.2 mph - N/A   Mostly Cloudy
2:53 PM 91.9 °F 99.5 °F 72.0 °F 52% 29.92 in 10.0 mi SSW 10.4 mph - N/A   Scattered Clouds
3:53 PM 91.9 °F 98.4 °F 71.1 °F 50% 29.91 in 10.0 mi SW 10.4 mph - N/A   Scattered Clouds
4:53 PM 91.0 °F 96.6 °F 70.0 °F 50% 29.90 in 10.0 mi WSW 10.4 mph - N/A   Mostly Cloudy
5:53 PM 91.0 °F 97.6 °F 71.1 °F 52% 29.89 in 10.0 mi SW 9.2 mph - N/A   Clear
6:53 PM 90.0 °F 96.4 °F 71.1 °F 54% 29.89 in 10.0 mi WSW 9.2 mph - N/A   Clear
7:53 PM 87.1 °F 92.8 °F 71.1 °F 59% 29.91 in 10.0 mi WSW 5.8 mph - N/A   Clear
8:53 PM 80.1 °F 84.2 °F 73.0 °F 79% 29.91 in 10.0 mi South 3.5 mph - N/A   Clear
9:53 PM 77.0 °F - 73.0 °F 88% 29.92 in 10.0 mi Calm Calm - N/A   Clear
10:53 PM 75.9 °F - 72.0 °F 87% 29.93 in 10.0 mi Calm Calm - N/A   Clear
11:53 PM 75.9 °F - 73.0 °F 91% 29.94 in 10.0 mi South 3.5 mph - N/A   Clear